Regional Weather Roundup
Issued by NWS

Home | Current Version | Previous Version | Graphics & Text | Print | Product List | Glossary On
Versions: 1 2 3 4 5 6 7 8 9 10 11 12 13 14 15 16 17 18 19 20 21 22 23 24 25 26 27 28 29 30 31 32 33 34 35 36 37 38 39 40 41 42 43 44 45 46 47 48
000
ASUS43 KDMX 031207
RWRIA

WEATHER ROUNDUP FOR IOWA
NATIONAL WEATHER SERVICE DES MOINES IA
700 AM CDT WED JUN 03 2015

NOTE: "FAIR" INDICATES FEW OR NO CLOUDS BELOW 12,000 FEET WITH NO
SIGNIFICANT WEATHER AND/OR OBSTRUCTIONS TO VISIBILITY.

* - THESE STATIONS ARE NOT NWS STATIONS...THUS NOT UNDER NWS
QUALITY CONTROL.  THEY ALSO DO NOT REPORT WEATHER SUCH
AS PRECIPITATION OR FOG.

IAZ001>003-012>014-020>022-031>034-043>046-031300-
   NORTHWEST IOWA

CITY           SKY/WX    TMP DP  RH WIND       PRES   REMARKS
CARROLL *      SUNNY     61  59  94 SE9       29.85F
CHEROKEE *     CLOUDY    63  61  94 S7        29.82R
DENISON *      MOSUNNY   63  63 100 SW8G17    29.78F
LE MARS *      PTSUNNY   66  61  82 SW20G35   29.84R
ORANGE CITY *  SUNNY     61  57  88 E8        29.76F
SHELDON *      SUNNY     61  61 100 SE9       29.79S
SIOUX CITY     CLOUDY    63  60  90 SW12      29.87R
6HR MIN TEMP:  63; 6HR MAX TEMP:  65; 6HR PCP:  0.27;

SPENCER        CLOUDY    61  59  93 SE8       29.82F
6HR MIN TEMP:  61; 6HR MAX TEMP:  65; 6HR PCP:  0.05;

STORM LAKE *   SUNNY     61  59  94 SE14G24   29.77F
$$

IAZ055>058-069>071-079>083-090>094-031300-
   SOUTHWEST IOWA

CITY           SKY/WX    TMP DP  RH WIND       PRES   REMARKS
ATLANTIC *     MOSUNNY   63  61  94 S9        29.87F
AUDUBON *      LGT RAIN  63  57  82 S9        29.87F
CLARINDA *     CLOUDY    63  63 100 SE5       29.94F
COUNCIL BLFS * CLOUDY    63  63 100 SE10      29.87F FOG
CRESTON *      LGT RAIN  61  61 100 S10       29.92F
HARLAN  *      CLOUDY    63  63 100 S13       29.88F
LAMONI         CLOUDY    63  57  81 SE10      29.93S
6HR MIN TEMP:  62; 6HR MAX TEMP:  64;

RED OAK *      LGT RAIN  63  63 100 S6        29.91S
SHENANDOAH *   LGT RAIN  63  63 100 SE9       29.92R
$$

IAZ047>049-059>061-072>074-084-031300-
   CENTRAL IOWA

CITY           SKY/WX    TMP DP  RH WIND       PRES   REMARKS
AMES           LGT RAIN  62  55  77 S15       29.93R
6HR MIN TEMP:  60; 6HR MAX TEMP:  62;

ANKENY *       CLOUDY    63  57  82 S7G14     29.92R
CHARITON *     CLOUDY    61  57  88 S12       29.93S
DES MOINES     TSTM      62  56  80 SW13G21   29.96R
6HR MIN TEMP:  61; 6HR MAX TEMP:  63; 6HR PCP: TRACE;

GRINNELL*      MOSUNNY   61  55  82 SE13      29.95F
KNOXVILLE *    CLOUDY    61  55  82 SE10      29.92F
MARSHALLTOWN   PTSUNNY   61  56  83 SE13      29.92F
6HR MIN TEMP:  58; 6HR MAX TEMP:  61;

PELLA *        PTSUNNY   61  59  94 SE8       29.95F
PERRY *        LGT RAIN  59  57  94 SE14      29.90F
$$

IAZ004>006-015-016-023>025-035-036-031300-
   NORTH CENTRAL IOWA

CITY           SKY/WX    TMP DP  RH WIND       PRES   REMARKS
ALGONA *       PTSUNNY   61  59  94 SE13G20   29.86F
CLARION *      CLOUDY    63  55  77 S15       29.91R
ESTHERVILLE    CLOUDY    61  57  87 S14       29.84F
6HR MIN TEMP:  60; 6HR MAX TEMP:  62;

FORT DODGE *   CLOUDY    61  55  82 S8        29.88F
MASON CITY     CLOUDY    62  56  80 SE15      29.91F
6HR MIN TEMP:  59; 6HR MAX TEMP:  62;

FOREST CITY *  CLOUDY    61  54  77 S10G16    29.92R
IOWA FALLS *   CLOUDY    61  55  82 S15       29.92F
$$

IAZ007>011-017>019-026>030-037>042-050>054-066-031300-
   NORTHEAST IOWA

CITY           SKY/WX    TMP DP  RH WIND       PRES   REMARKS
CEDAR RAPIDS   MOSUNNY   59  57  93 SE6       29.98F
6HR MIN TEMP:  54; 6HR MAX TEMP:  59;

CHARLES CITY * PTSUNNY   59  57  94 SE10      29.94F
CLINTON *      SUNNY     59  52  77 SE9       30.06S
DECORAH *      PTSUNNY   57  54  88 SE7       29.97F
DUBUQUE        MOSUNNY   57  51  80 S10       30.03R
6HR MIN TEMP:  52; 6HR MAX TEMP:  58;

MONTICELLO *   SUNNY     57  54  88 SE8       30.02R
OELWEIN *      MOSUNNY   59  55  88 SE12      29.97F
WATERLOO       MOSUNNY   61  55  81 S12       29.93F
6HR MIN TEMP:  58; 6HR MAX TEMP:  61;

$$

IAZ064-065-067-068-078-031300-
   EAST CENTRAL IOWA

CITY           SKY/WX    TMP DP  RH WIND       PRES   REMARKS
DAVENPORT      SUNNY     60  54  80 SE7       30.03S
6HR MIN TEMP:  55; 6HR MAX TEMP:  60;

IOWA CITY      MOSUNNY   58  55  90 SE3       30.02R
6HR MIN TEMP:  54; 6HR MAX TEMP:  60;

MT. PLEASANT * MOSUNNY   59  58  94 S6        30.01S
MUSCATINE *    SUNNY     59  55  88 CALM      30.02S
QUAD CITIES    MOSUNNY   59  54  83 SE7       30.02S
6HR MIN TEMP:  53; 6HR MAX TEMP:  59;

$$

IAZ062-063-075>077-085>089-095>099-031300-
   SOUTHEAST IOWA

CITY           SKY/WX    TMP DP  RH WIND       PRES   REMARKS
BURLINGTON     SUNNY     59  58  96 S3        30.01S FOG
6HR MIN TEMP:  54; 6HR MAX TEMP:  59;

FAIRFIELD *    MOSUNNY   59  55  88 S9        29.99F
FORT MADISON * SUNNY     59  57  94 S3        30.03R FOG
KEOKUK *       SUNNY     61  59  94 S3        30.01R
OSKALOOSA *      N/A     58  55  91 SE9       29.96F
CENTERVILLE *  MOSUNNY   57  57 100 SE10      29.96F
OTTUMWA        MOSUNNY   60  56  86 SE10      29.95F
6HR MIN TEMP:  56; 6HR MAX TEMP:  60;

WASHINGTON *   SUNNY     59  57  94 S8        30.02S
$$

ABBREVIATIONS USED IN REMARKS
   TC - TEMPERATURES IN CELSIUS
  WCI - WIND CHILL INDEX
   HX - HEAT INDEX
  VSB - VISIBILITY
$$



USA.gov is the U.S. government's official web portal to all federal, state and local government web resources and services.